Regional Weather Roundup
Issued by NWS

Home | Current Version | Previous Version | Text Only | Print | Product List | Glossary On
Versions: 1 2 3 4 5 6 7 8 9 10 11 12 13 14 15 16 17 18 19 20 21 22 23 24 25 26 27 28 29 30 31 32 33 34 35 36 37 38 39 40 41 42 43 44 45 46 47 48 49 50
000
ASUS44 KBMX 300710
RWRAL

ALABAMA REGIONAL WEATHER ROUNDUP
NATIONAL WEATHER SERVICE BIRMINGHAM AL
200 AM CDT SAT MAY 30 2015

NOTE: "FAIR" INDICATES FEW OR NO CLOUDS BELOW 12,000 FEET
WITH NO SIGNIFICANT WEATHER AND/OR OBSTRUCTIONS TO VISIBILITY.

THE REMARK "TC" DENOTES TEMPERATURE IN DEGREES CELSIUS.

ALZ001>011-014-016>018-020-300800-
NORTH ALABAMA

CITY           SKY/WX    TMP DP  RH WIND       PRES   REMARKS
MUSCLE SHOALS  CLEAR     69  65  86 SE5       30.09S
HUNTSVILLE     CLEAR     70  66  87 SE3       30.10S
DECATUR        CLEAR     68  66  93 SE5       30.10S
HALEYVILLE     FAIR      68  68 100 CALM      30.12S
GADSDEN        CLEAR    N/A N/A N/A CALM      30.11S VSB 1
$$

ALZ012-013-022-023-030>036-040>044-300800-
WEST CENTRAL ALABAMA

CITY           SKY/WX    TMP DP  RH WIND       PRES   REMARKS
TUSCALOOSA     CLEAR     71  68  90 CALM      30.08F
$$

ALZ015-024>027-033>036-040>044-300800-
CENTRAL ALABAMA

CITY           SKY/WX    TMP DP  RH WIND       PRES   REMARKS
BIRMINGHAM     CLEAR     70  68  93 CALM      30.12S
MONTGOMERY     CLEAR     68  64  87 CALM      30.09F
SHELBY CO ARPT CLEAR     68  67  96 CALM      30.11S
MAXWELL AFB    CLEAR     67  66  96 N1        30.08F
GREENVILLE     FAIR      65  62  90 CALM      30.09F
$$

ALZ019-021-028-029-037-038-045>048-300800-
EAST CENTRAL ALABAMA

CITY           SKY/WX    TMP DP  RH WIND       PRES   REMARKS
ANNISTON       CLEAR     66  64  93 CALM      30.12S
ALEXANDER CITY CLEAR     64  61  88 CALM      30.12S
AUBURN         CLEAR     70  57  64 E3        30.12F
$$

ALZ051>064-300800-
SOUTHWEST ALABAMA

CITY           SKY/WX    TMP DP  RH WIND       PRES   REMARKS
MOBILE         CLEAR     71  70  96 CALM      30.07F
BROOKLEY FIELD CLEAR     74  70  87 SE5       30.07F
EVERGREEN      CLEAR     67  66  97 CALM      30.09F FOG
$$

ALZ049-050-065>069-300800-
SOUTHEAST ALABAMA

CITY           SKY/WX    TMP DP  RH WIND       PRES   REMARKS
DOTHAN         CLEAR     70  66  87 N3        30.12F
OZARK          CLEAR     68  66  93 NE3       30.08F
TROY           CLEAR     64  63  96 CALM      30.10F
EUFAULA        FAIR      65  63  93 CALM      30.09F
$$


USA.gov is the U.S. government's official web portal to all federal, state and local government web resources and services.